QPF
0.00 0.00 0.00 0.00 0.00 0.00 0.00 0.00 0.00 0.00 0.00 0.00 0.00 0.00 0.00 0.00 0.00 0.00 0.00 0.00 0.00 0.00 0.00 0.00 0.00 0.00 0.00 0.00 0.00 0.00 0.00 0.00 0.00 0.00 0.00 0.00 0.00 0.00 0.00 0.00 0.00 0.00 0.00 0.00 0.00 0.00 0.00 0.00 0.00 0.00 0.00 0.00 0.00 0.00
0.00 0.00 0.00 0.00 0.00 0.00 0.00 0.00 0.00 0.00 0.00 0.00 0.00 0.00 0.00 0.00 0.00 0.00 0.00 0.00 0.00 0.00 0.00 0.00 0.00 0.00 0.00 0.00 0.00 0.00 0.00 0.00 0.00 0.00 0.00 0.00 0.00 0.00 0.00 0.00 0.00 0.00 0.00 0.00 0.00 0.00 0.00 0.00 0.00 0.00 0.00 0.00 0.00 0.00
0.00 0.00 0.00 0.00 0.00 0.00 0.00 0.00 0.00 0.00 0.00 0.00 0.00 0.00 0.00 0.00 0.00 0.00 0.00 0.00 0.00 0.00 0.00 0.00 0.00 0.00 0.00 0.00 0.00 0.00 0.00 0.00 0.00 0.00 0.00 0.00 0.00 0.00 0.00 0.00 0.00 0.00 0.00 0.00 0.00 0.00 0.00 0.00 0.00 0.00 0.00 0.00 0.00 0.00
0.00 0.00 0.00 0.00 0.00 0.00 0.00 0.00 0.00 0.00 0.00 0.00 0.00 0.00 0.00 0.00 0.00 0.00 0.00 0.00 0.00 0.00 0.00 0.00 0.00 0.00 0.00 0.00 0.00 0.00 0.00 0.00 0.00 0.00 0.00 0.00 0.00 0.00 0.00 0.00 0.00 0.00 0.00 0.00 0.00 0.00 0.00 0.00 0.00 0.00 0.00 0.00 0.00 0.00
0.00 0.00 0.00 0.00 0.00 0.00 0.00 0.00 0.00 0.00 0.00 0.00 0.00 0.00 0.00 0.00 0.00 0.00 0.00 0.00 0.00 0.00 0.00 0.00 0.00 0.00 0.00 0.00 0.00 0.00 0.00 0.00 0.00 0.00 0.00 0.00 0.00 0.00 0.00 0.00 0.00 0.00 0.00 0.00 0.00 0.00 0.00 0.00 0.00 0.00 0.00 0.00 0.00 0.00
0.00 0.00 0.00 0.00 0.00 0.00 0.00 0.00 0.00 0.00 0.00 0.00 0.00 0.00 0.00 0.00 0.00 0.00 0.00 0.00 0.00 0.00 0.00 0.00 0.00 0.00 0.00 0.00 0.00 0.00 0.00 0.00 0.00 0.00 0.00 0.00 0.00 0.00 0.00 0.00 0.00 0.00 0.00 0.00 0.00 0.00 0.00 0.00 0.00 0.00 0.00 0.00 0.00 0.00
0.00 0.00 0.00 0.00 0.00 0.00 0.00 0.00 0.00 0.00 0.00 0.00 0.00 0.00 0.00 0.00 0.00 0.00 0.00 0.00 0.00 0.00 0.00 0.00 0.00 0.00 0.00 0.00 0.00 0.00 0.00 0.00 0.00 0.00 0.00 0.00 0.00 0.00 0.00 0.00 0.00 0.00 0.00 0.00 0.00 0.00 0.00 0.00 0.00 0.00 0.00 0.00 0.00 0.00
0.00 0.00 0.00 0.00 0.00 0.00 0.00 0.00 0.00 0.00 0.00 0.00 0.00 0.00 0.00 0.00 0.00 0.00 0.00 0.00 0.00 0.00 0.00 0.00 0.00 0.00 0.00 0.00 0.00 0.00 0.00 0.00 0.00 0.00 0.00 0.00 0.00 0.00 0.00 0.00 0.00 0.00 0.00 0.00 0.00 0.00 0.00 0.00 0.00 0.00 0.00 0.00 0.00 0.00
0.00 0.00 0.00 0.00 0.00 0.00 0.00 0.00 0.00 0.00 0.00 0.00 0.00 0.00 0.00 0.00 0.00 0.00 0.00 0.00 0.00 0.00 0.00 0.00 0.00 0.00 0.00 0.00 0.00 0.00 0.00 0.00 0.00 0.00 0.00 0.00 0.00 0.00 0.00 0.00 0.00 0.00 0.00 0.00 0.00 0.00 0.00 0.00 0.00 0.00 0.00 0.00 0.00 0.00
0.00 0.00 0.00 0.00 0.00 0.00 0.00 0.00 0.00 0.00 0.00 0.00 0.00 0.00 0.00 0.00 0.00 0.00 0.00 0.00 0.00 0.00 0.00 0.00 0.00 0.00 0.00 0.00 0.00 0.00 0.00 0.00 0.00 0.00 0.00 0.00 0.00 0.00 0.00 0.00 0.00 0.00 0.00 0.00 0.00 0.00 0.00 0.00 0.00 0.00 0.00 0.00 0.00 0.00
0.00 0.00 0.00 0.00 0.00 0.00 0.00 0.00 0.00 0.00 0.00 0.00 0.00 0.00 0.00 0.00 0.00 0.00 0.00 0.00 0.00 0.00 0.00 0.00 0.00 0.00 0.00 0.00 0.00 0.00 0.00 0.00 0.00 0.00 0.00 0.00 0.00 0.00 0.00 0.00 0.00 0.00 0.00 0.00 0.00 0.00 0.00 0.00 0.00 0.00 0.00 0.00 0.00 0.00
0.00 0.00 0.00 0.00 0.00 0.00 0.00 0.00 0.00 0.00 0.00 0.00 0.00 0.00 0.00 0.00 0.00 0.00 0.00 0.00 0.00 0.00 0.00 0.00 0.00 0.00 0.00 0.00 0.00 0.00 0.00 0.00 0.00 0.00 0.00 0.00 0.00 0.00 0.00 0.00 0.00 0.00 0.00 0.00 0.00 0.00 0.00 0.00 0.00 0.00 0.00 0.00 0.00 0.00
0.00 0.00 0.00 0.00 0.00 0.00 0.00 0.00 0.00 0.00 0.00 0.00 0.00 0.00 0.00 0.00 0.00 0.00 0.00 0.00 0.00 0.00 0.00 0.00 0.00 0.00 0.00 0.00 0.00 0.00 0.00 0.00 0.00 0.00 0.00 0.00 0.00 0.00 0.00 0.00 0.00 0.00 0.00 0.00 0.00 0.00 0.00 0.00 0.00 0.00 0.00 0.00 0.00 0.00
0.00 0.00 0.00 0.00 0.00 0.00 0.00 0.00 0.00 0.00 0.00 0.00 0.00 0.00 0.00 0.00 0.00 0.00 0.00 0.00 0.00 0.00 0.00 0.00 0.00 0.00 0.00 0.00 0.00 0.00 0.00 0.00 0.00 0.00 0.00 0.00 0.00 0.00 0.00 0.00 0.00 0.00 0.00 0.00 0.00 0.00 0.00 0.00 0.00 0.00 0.00 0.00 0.00 0.00
0.00 0.00 0.00 0.00 0.00 0.00 0.00 0.00 0.00 0.00 0.00 0.00 0.00 0.00 0.00 0.00 0.00 0.00 0.00 0.00 0.00 0.00 0.00 0.00 0.00 0.00 0.00 0.00 0.00 0.00 0.00 0.00 0.00 0.00 0.00 0.00 0.00 0.00 0.00 0.00 0.00 0.00 0.00 0.00 0.00 0.00 0.00 0.00 0.00 0.00 0.00 0.00 0.00 0.00
0.00 0.00 0.00 0.00 0.00 0.00 0.00 0.00 0.00 0.00 0.00 0.00 0.00 0.00 0.00 0.00 0.00 0.00 0.00 0.00 0.00 0.00 0.00 0.00 0.00 0.00 0.00 0.00 0.00 0.00 0.00 0.00 0.00 0.00 0.00 0.00 0.00 0.00 0.00 0.00 0.00 0.00 0.00 0.00 0.00 0.00 0.00 0.00 0.00 0.00 0.00 0.00 0.00 0.00
0.00 0.00 0.00 0.00 0.00 0.00 0.00 0.00 0.00 0.00 0.00 0.00 0.00 0.00 0.00 0.00 0.00 0.00 0.00 0.00 0.00 0.00 0.01 0.05 0.08 0.02 0.00 0.01 0.00 0.00 0.00 0.00 0.00 0.00 0.00 0.00 0.00 0.00 0.00 0.00 0.00 0.00 0.00 0.00 0.00 0.00 0.00 0.00 0.00 0.00 0.00 0.00 0.00 0.00
0.00 0.00 0.00 0.00 0.00 0.00 0.00 0.00 0.00 0.00 0.00 0.00 0.00 0.00 0.00 0.00 0.00 0.00 0.00 0.00 0.00 0.00 0.00 0.01 0.03 0.07 0.02 0.00 0.00 0.00 0.00 0.00 0.00 0.00 0.00 0.00 0.00 0.00 0.00 0.00 0.00 0.00 0.00 0.00 0.00 0.00 0.00 0.00 0.00 0.00 0.00 0.00 0.00 0.00
0.00 0.00 0.00 0.00 0.00 0.00 0.00 0.00 0.00 0.00 0.00 0.00 0.00 0.00 0.00 0.00 0.00 0.00 0.00 0.00 0.00 0.00 0.00 0.00 0.00 0.00 0.00 0.00 0.00 0.00 0.00 0.00 0.00 0.00 0.00 0.00 0.00 0.00 0.00 0.00 0.00 0.00 0.00 0.00 0.00 0.00 0.00 0.01 0.01 0.00 0.00 0.00 0.00 0.00
0.00 0.00 0.00 0.00 0.00 0.00 0.00 0.00 0.00 0.00 0.00 0.00 0.00 0.00 0.00 0.00 0.00 0.00 0.00 0.00 0.00 0.00 0.01 0.00 0.00 0.00 0.00 0.00 0.00 0.00 0.00 0.00 0.00 0.00 0.00 0.00 0.00 0.00 0.00 0.00 0.00 0.00 0.00 0.00 0.00 0.00 0.00 0.00 0.00 0.00 0.00 0.00 0.00 0.00
0.00 0.00 0.00 0.00 0.00 0.00 0.00 0.00 0.00 0.00 0.00 0.00 0.00 0.00 0.00 0.00 0.00 0.00 0.00 0.00 0.00 0.00 0.00 0.00 0.00 0.00 0.00 0.00 0.00 0.00 0.00 0.00 0.00 0.00 0.00 0.00 0.00 0.00 0.00 0.00 0.00 0.00 0.00 0.00 0.00 0.00 0.00 0.00 0.00 0.00 0.00 0.00 0.00 0.00
0.00 0.00 0.00 0.00 0.00 0.00 0.00 0.00 0.00 0.00 0.00 0.00 0.00 0.00 0.00 0.00 0.00 0.00 0.00 0.00 0.00 0.00 0.00 0.00 0.00 0.00 0.00 0.00 0.00 0.00 0.00 0.00 0.00 0.00 0.00 0.00 0.00 0.00 0.00 0.00 0.00 0.00 0.00 0.00 0.00 0.00 0.00 0.00 0.00 0.00 0.00 0.00 0.01 0.02
0.00 0.00 0.00 0.00 0.00 0.00 0.00 0.00 0.00 0.00 0.00 0.00 0.01 0.01 0.00 0.00 0.00 0.00 0.00 0.00 0.00 0.00 0.00 0.00 0.00 0.00 0.00 0.00 0.00 0.00 0.00 0.00 0.00 0.00 0.00 0.00 0.00 0.00 0.00 0.00 0.00 0.00 0.00 0.00 0.00 0.00 0.02 0.00 0.00 0.01 0.05 0.16 0.17 0.15
0.00 0.00 0.00 0.01 0.00 0.00 0.00 0.00 0.00 0.00 0.01 0.01 0.00 0.00 0.00 0.00 0.01 0.02 0.00 0.00 0.00 0.00 0.00 0.00 0.00 0.00 0.00 0.00 0.00 0.00 0.00 0.00 0.00 0.00 0.00 0.00 0.00 0.00 0.00 0.00 0.00 0.00 0.00 0.00 0.00 0.00 0.00 0.00 0.02 0.10 0.11 0.14 0.13 0.10
0.01 0.00 0.00 0.00 0.00 0.01 0.00 0.00 0.00 0.00 0.00 0.00 0.01 0.00 0.00 0.02 0.04 0.05 0.01 0.00 0.00 0.00 0.00 0.00 0.00 0.00 0.00 0.00 0.00 0.00 0.00 0.00 0.00 0.00 0.00 0.00 0.00 0.00 0.00 0.00 0.00 0.00 0.00 0.00 0.00 0.00 0.00 0.01 0.10 0.11 0.07 0.07 0.08 0.03
0.00 0.00 0.00 0.00 0.01 0.01 0.01 0.03 0.10 0.03 0.03 0.02 0.02 0.00 0.00 0.00 0.01 0.02 0.02 0.01 0.02 0.00 0.00 0.00 0.00 0.00 0.00 0.00 0.00 0.00 0.00 0.00 0.00 0.00 0.00 0.00 0.00 0.00 0.00 0.00 0.00 0.00 0.00 0.00 0.00 0.00 0.00 0.00 0.01 0.05 0.04 0.04 0.12 0.12
0.00 0.00 0.00 0.00 0.01 0.06 0.02 0.03 0.06 0.05 0.00 0.00 0.00 0.00 0.00 0.01 0.03 0.09 0.03 0.00 0.00 0.00 0.03 0.03 0.01 0.00 0.00 0.00 0.00 0.00 0.00 0.00 0.00 0.00 0.00 0.00 0.00 0.00 0.00 0.00 0.00 0.00 0.00 0.00 0.00 0.00 0.00 0.01 0.02 0.02 0.00 0.01 0.01 0.04
0.00 0.00 0.00 0.00 0.00 0.01 0.02 0.02 0.01 0.00 0.00 0.00 0.00 0.00 0.01 0.04 0.17 0.12 0.01 0.00 0.00 0.00 0.00 0.00 0.00 0.00 0.00 0.00 0.00 0.00 0.00 0.00 0.00 0.00 0.00 0.00 0.00 0.00 0.00 0.00 0.00 0.00 0.00 0.00 0.00 0.00 0.00 0.00 0.00 0.01 0.00 0.00 0.00 0.01
0.00 0.00 0.00 0.00 0.00 0.00 0.00 0.00 0.00 0.00 0.00 0.00 0.00 0.01 0.01 0.02 0.02 0.01 0.01 0.00 0.00 0.01 0.01 0.04 0.01 0.00 0.00 0.00 0.00 0.00 0.00 0.00 0.00 0.00 0.00 0.00 0.00 0.00 0.00 0.00 0.00 0.00 0.00 0.00 0.00 0.00 0.00 0.00 0.00 0.00 0.00 0.00 0.00 0.00
0.00 0.00 0.00 0.00 0.00 0.00 0.00 0.00 0.00 0.00 0.00 0.00 0.00 0.00 0.01 0.01 0.00 0.00 0.00 0.00 0.00 0.00 0.00 0.00 0.00 0.00 0.00 0.00 0.00 0.00 0.00 0.00 0.00 0.00 0.00 0.00 0.00 0.00 0.00 0.00 0.00 0.00 0.00 0.00 0.00 0.00 0.00 0.00 0.00 0.00 0.00 0.02 0.03 0.00
0.00 0.00 0.00 0.00 0.00 0.00 0.00 0.00 0.00 0.00 0.00 0.00 0.00 0.00 0.00 0.00 0.00 0.00 0.00 0.00 0.00 0.00 0.00 0.00 0.00 0.00 0.00 0.00 0.00 0.00 0.00 0.00 0.00 0.00 0.00 0.00 0.00 0.00 0.00 0.00 0.00 0.00 0.00 0.00 0.00 0.00 0.00 0.00 0.00 0.00 0.00 0.00 0.01 0.01
0.00 0.00 0.00 0.00 0.00 0.00 0.00 0.00 0.00 0.00 0.00 0.00 0.00 0.00 0.00 0.00 0.00 0.00 0.00 0.00 0.00 0.00 0.00 0.00 0.00 0.00 0.00 0.00 0.00 0.00 0.00 0.00 0.00 0.00 0.00 0.00 0.00 0.00 0.00 0.00 0.00 0.00 0.00 0.00 0.00 0.00 0.00 0.00 0.00 0.00 0.00 0.00 0.00 0.00
0.00 0.00 0.00 0.02 0.01 0.00 0.00 0.00 0.00 0.00 0.00 0.00 0.00 0.00 0.00 0.00 0.00 0.00 0.01 0.01 0.00 0.00 0.00 0.00 0.00 0.00 0.00 0.00 0.00 0.00 0.00 0.00 0.00 0.00 0.00 0.00 0.00 0.00 0.00 0.00 0.00 0.00 0.00 0.00 0.00 0.00 0.00 0.00 0.00 0.00 0.00 0.00 0.00 0.00
MSLP
1020.63 1020.34 1020.30 1020.18 1019.81 1019.59 1019.41 1019.15 1018.82 1018.50 1018.19 1017.86 1017.48 1017.15 1016.85 1016.43 1015.92 1015.71 1015.23 1014.68 1014.81 1014.86 1013.20 1012.04 1011.16 1010.72 1010.64 1010.80 1010.91 1010.73 1011.01 1011.07 1011.85 1013.14 1013.98 1014.43 1014.20 1013.73 1013.50 1012.95 1012.95 1013.75 1014.42 1014.86 1015.09 1014.64 1013.89 1012.44 1011.95 1012.32 1013.61 1013.49 1013.38 1013.06
1020.62 1020.24 1020.10 1020.01 1019.75 1019.51 1019.32 1019.03 1018.68 1018.38 1018.11 1017.79 1017.43 1017.09 1016.79 1016.53 1016.14 1015.60 1015.66 1014.90 1014.74 1014.75 1013.28 1012.12 1011.03 1010.33 1010.33 1010.23 1010.68 1011.03 1011.28 1011.54 1012.05 1013.25 1014.12 1014.38 1014.60 1014.39 1014.31 1013.89 1013.17 1013.74 1013.66 1014.10 1014.93 1014.69 1014.17 1013.71 1013.47 1013.52 1013.70 1013.71 1013.58 1013.49
1020.55 1020.26 1020.04 1020.01 1019.75 1019.47 1019.17 1018.90 1018.57 1018.30 1018.01 1017.74 1017.44 1017.10 1016.85 1016.60 1016.38 1016.25 1016.18 1015.69 1015.02 1014.81 1013.32 1012.14 1010.46 1009.61 1009.63 1009.73 1009.82 1010.64 1011.30 1011.25 1011.80 1012.06 1013.39 1014.26 1014.62 1014.53 1014.79 1014.33 1013.69 1013.30 1013.30 1014.07 1014.67 1014.83 1014.48 1014.25 1014.13 1014.01 1013.96 1013.91 1013.73 1013.57
1020.54 1020.26 1019.99 1019.79 1019.59 1019.31 1019.02 1018.70 1018.39 1018.13 1017.92 1017.60 1017.26 1016.98 1016.68 1016.42 1016.25 1016.17 1016.25 1015.81 1015.75 1015.64 1014.81 1011.98 1010.15 1009.69 1008.98 1009.15 1009.66 1009.93 1010.48 1010.98 1011.55 1012.18 1013.34 1014.15 1014.46 1014.20 1014.66 1014.11 1014.08 1013.60 1013.53 1014.15 1014.76 1014.71 1014.78 1014.58 1014.26 1014.04 1013.90 1013.78 1013.71 1013.57
1020.61 1020.24 1019.88 1019.61 1019.37 1019.11 1018.82 1018.52 1018.24 1017.94 1017.69 1017.45 1017.17 1016.89 1016.59 1016.32 1016.02 1015.80 1015.88 1015.56 1015.40 1015.88 1015.39 1013.33 1011.18 1009.50 1008.98 1009.09 1009.51 1009.88 1010.52 1011.39 1012.25 1013.07 1013.86 1014.21 1013.82 1014.21 1014.53 1014.51 1014.28 1013.53 1013.51 1013.97 1014.07 1013.88 1013.99 1013.88 1013.90 1013.95 1013.98 1013.94 1013.81 1013.60
1020.58 1020.25 1019.87 1019.51 1019.17 1018.87 1018.63 1018.37 1018.09 1017.78 1017.51 1017.26 1017.04 1016.83 1016.54 1016.31 1015.95 1015.76 1015.80 1015.63 1015.33 1015.56 1015.49 1014.22 1011.86 1010.34 1009.33 1009.30 1009.69 1010.30 1010.83 1011.63 1012.40 1013.06 1013.67 1013.59 1013.07 1013.32 1014.37 1014.70 1013.59 1013.21 1013.02 1012.98 1013.12 1013.23 1013.46 1013.37 1013.51 1013.49 1013.70 1013.60 1013.36 1013.28
1020.50 1020.11 1019.77 1019.39 1019.06 1018.69 1018.42 1018.16 1017.91 1017.62 1017.31 1017.05 1016.81 1016.58 1016.39 1016.29 1016.27 1016.23 1015.92 1015.35 1015.31 1015.58 1015.45 1014.84 1012.95 1010.73 1009.85 1009.91 1010.51 1010.90 1011.12 1011.74 1012.24 1013.07 1013.41 1013.48 1013.30 1013.34 1014.03 1014.18 1013.08 1012.73 1012.63 1012.73 1012.74 1013.09 1013.49 1013.29 1013.28 1013.30 1013.33 1013.10 1012.93 1012.71
1020.40 1020.00 1019.67 1019.31 1018.97 1018.55 1018.20 1017.97 1017.76 1017.44 1017.14 1016.77 1016.48 1016.20 1016.05 1015.98 1015.97 1015.69 1014.54 1014.31 1015.03 1015.50 1015.48 1015.33 1013.58 1011.80 1010.17 1010.82 1011.31 1011.37 1011.84 1012.23 1012.45 1012.84 1013.22 1013.31 1013.44 1013.52 1013.81 1012.90 1012.45 1012.41 1012.73 1012.93 1012.99 1013.05 1013.21 1013.20 1013.29 1013.23 1013.00 1012.90 1012.73 1012.47
1020.34 1019.93 1019.57 1019.23 1018.85 1018.44 1018.09 1017.76 1017.48 1017.14 1016.73 1016.39 1016.08 1015.75 1015.71 1015.67 1015.58 1014.77 1014.38 1014.51 1014.77 1015.58 1015.64 1015.51 1014.38 1012.40 1010.85 1011.16 1011.38 1011.75 1012.01 1012.82 1012.97 1012.91 1012.97 1013.06 1013.56 1013.53 1012.60 1012.39 1012.39 1012.30 1012.57 1012.78 1013.11 1013.25 1013.33 1013.37 1013.22 1013.03 1012.90 1012.77 1012.60 1012.26
1020.24 1019.85 1019.43 1019.03 1018.67 1018.33 1017.97 1017.65 1017.26 1016.83 1016.35 1016.02 1015.90 1015.88 1015.68 1015.11 1014.60 1014.54 1014.58 1014.83 1015.02 1015.26 1015.46 1015.21 1014.02 1012.77 1011.67 1011.76 1011.86 1012.34 1012.58 1012.80 1013.15 1012.71 1012.65 1012.87 1013.13 1012.53 1012.16 1011.98 1012.13 1012.41 1012.61 1012.91 1013.29 1013.35 1013.25 1013.17 1012.99 1012.69 1012.49 1012.32 1012.11 1011.81
1020.05 1019.63 1019.24 1018.87 1018.50 1018.17 1017.84 1017.51 1017.15 1016.69 1015.74 1015.90 1016.17 1016.10 1015.34 1014.76 1014.85 1015.00 1015.02 1015.22 1015.23 1015.31 1014.81 1013.89 1013.46 1012.70 1011.49 1011.65 1012.04 1012.09 1012.39 1012.65 1013.02 1012.82 1012.84 1013.27 1013.37 1012.65 1012.36 1012.35 1012.36 1012.56 1012.60 1012.68 1012.69 1012.61 1012.57 1012.55 1012.39 1012.18 1011.97 1011.74 1011.46 1011.15
1019.91 1019.55 1019.08 1018.62 1018.21 1017.87 1017.56 1017.30 1017.08 1016.88 1016.53 1016.75 1016.74 1016.30 1015.81 1015.28 1015.29 1015.26 1014.90 1014.79 1014.61 1014.00 1013.27 1012.90 1012.31 1012.21 1011.51 1011.21 1011.75 1012.18 1012.33 1012.76 1012.86 1012.76 1013.13 1013.45 1012.86 1012.51 1012.57 1012.53 1012.47 1012.43 1012.35 1012.31 1012.11 1012.05 1011.87 1011.80 1011.60 1011.50 1011.35 1011.06 1010.74 1010.42
1019.72 1019.27 1018.79 1018.30 1017.84 1017.41 1017.10 1016.92 1016.87 1016.84 1016.65 1016.48 1016.46 1016.09 1015.76 1015.46 1015.28 1014.83 1014.21 1013.78 1013.40 1012.47 1012.01 1011.81 1011.88 1011.51 1011.42 1011.25 1011.94 1012.15 1012.48 1012.88 1012.55 1013.00 1013.15 1012.97 1012.66 1012.55 1012.53 1012.48 1012.45 1012.17 1012.07 1012.01 1011.89 1011.63 1011.40 1011.20 1010.89 1010.72 1010.55 1010.17 1009.96 1009.73
1019.57 1019.02 1018.46 1018.00 1017.52 1016.87 1016.47 1016.50 1016.63 1016.67 1016.65 1016.38 1015.99 1016.12 1015.58 1014.76 1014.10 1013.41 1012.85 1012.33 1011.71 1011.39 1011.19 1011.23 1011.51 1011.37 1011.46 1011.71 1012.20 1012.43 1012.53 1012.51 1012.87 1013.21 1013.04 1012.52 1012.26 1012.30 1012.48 1012.46 1012.41 1012.13 1012.05 1011.96 1011.69 1011.28 1010.93 1010.55 1010.23 1009.93 1009.73 1009.49 1009.26 1009.07
1019.34 1018.82 1018.31 1017.92 1017.37 1016.75 1016.52 1016.52 1016.56 1016.63 1016.45 1016.17 1015.96 1015.53 1014.71 1013.73 1013.05 1012.37 1011.83 1011.63 1011.08 1010.82 1010.76 1011.09 1011.36 1011.47 1011.96 1012.12 1012.39 1012.49 1012.62 1012.53 1012.52 1012.65 1012.39 1011.94 1011.94 1012.29 1012.40 1012.35 1012.36 1012.23 1012.00 1011.75 1011.26 1011.07 1010.67 1010.28 1009.93 1009.53 1009.18 1008.82 1008.59 1008.35
1019.11 1018.57 1018.49 1018.13 1017.60 1017.11 1016.79 1016.62 1016.61 1016.66 1016.37 1016.08 1015.66 1015.09 1014.14 1013.71 1012.98 1012.17 1011.66 1011.37 1010.86 1010.94 1011.09 1011.34 1011.88 1012.07 1012.26 1012.33 1012.53 1012.36 1012.49 1012.20 1011.97 1011.99 1011.68 1011.78 1011.98 1012.11 1012.33 1012.35 1012.21 1012.00 1011.83 1011.63 1011.29 1010.95 1010.53 1010.05 1009.57 1009.07 1008.61 1008.17 1007.85 1007.66
1018.81 1018.65 1018.61 1018.22 1017.73 1017.12 1016.82 1016.83 1016.56 1016.53 1016.45 1016.02 1015.28 1014.61 1014.32 1013.84 1013.14 1012.47 1011.83 1011.28 1010.89 1011.31 1011.95 1012.01 1012.70 1012.50 1012.68 1012.40 1012.60 1012.11 1011.92 1011.61 1011.30 1011.40 1011.51 1011.66 1011.88 1012.05 1012.18 1012.17 1011.98 1011.87 1011.74 1011.42 1011.04 1010.56 1010.05 1009.40 1008.97 1008.48 1008.01 1007.51 1007.23 1007.07
1019.14 1018.84 1018.62 1018.35 1018.05 1017.46 1017.03 1016.93 1016.79 1016.55 1016.29 1015.56 1015.36 1014.36 1013.95 1013.43 1012.95 1012.36 1011.89 1011.40 1011.33 1011.60 1011.91 1012.14 1012.51 1012.77 1012.56 1012.14 1011.71 1011.36 1011.17 1011.14 1011.33 1011.47 1011.60 1011.69 1011.70 1011.70 1011.79 1011.82 1011.64 1011.62 1011.38 1011.06 1010.73 1010.16 1009.48 1008.84 1008.39 1007.84 1007.42 1007.04 1006.91 1006.63
1019.29 1018.81 1018.28 1018.16 1018.30 1018.15 1017.45 1016.92 1016.92 1016.50 1015.83 1015.32 1014.53 1014.09 1013.75 1013.25 1012.64 1012.21 1011.87 1011.50 1011.31 1011.30 1011.55 1011.93 1011.92 1012.01 1011.66 1011.22 1010.91 1010.78 1010.80 1011.01 1011.29 1011.51 1011.50 1011.34 1011.36 1011.44 1011.46 1011.42 1011.41 1011.25 1011.02 1010.70 1010.32 1009.75 1009.06 1008.42 1007.75 1007.29 1006.93 1006.71 1006.54 1006.07
1018.42 1018.14 1017.78 1017.56 1018.01 1018.01 1017.47 1016.84 1016.50 1016.36 1015.70 1014.77 1014.14 1013.71 1013.29 1012.72 1012.02 1011.80 1011.56 1011.49 1011.60 1011.56 1011.55 1011.51 1011.34 1010.85 1010.56 1010.19 1010.01 1009.94 1009.69 1010.14 1010.72 1011.62 1011.72 1011.50 1011.24 1011.36 1011.28 1011.23 1011.05 1010.76 1010.54 1010.25 1009.77 1009.26 1008.69 1007.86 1007.09 1006.59 1006.28 1006.20 1006.00 1005.62
1018.51 1018.07 1017.87 1017.75 1018.09 1018.09 1017.64 1016.82 1016.26 1015.69 1015.23 1014.64 1013.43 1013.16 1012.43 1011.80 1011.59 1011.44 1011.31 1011.06 1011.45 1011.21 1010.89 1010.28 1009.98 1009.58 1009.38 1009.38 1009.38 1009.36 1009.67 1010.09 1010.32 1010.61 1010.96 1011.22 1010.88 1010.99 1010.90 1010.85 1010.76 1010.51 1010.46 1010.07 1009.61 1008.96 1008.38 1007.66 1007.02 1006.47 1005.97 1005.59 1005.12 1004.87
1018.82 1018.08 1017.87 1017.81 1017.75 1017.54 1017.36 1016.70 1016.40 1015.39 1014.93 1013.77 1013.08 1012.24 1011.79 1011.36 1010.94 1010.61 1010.35 1010.79 1010.49 1009.84 1009.37 1009.22 1009.13 1009.03 1009.15 1009.22 1009.11 1009.17 1009.21 1009.53 1009.94 1010.25 1010.41 1010.60 1010.76 1010.95 1010.90 1010.69 1010.59 1010.39 1010.04 1009.68 1009.27 1008.82 1007.98 1007.22 1006.75 1006.18 1005.54 1004.97 1004.68 1004.47
1018.47 1018.16 1017.93 1017.53 1017.45 1016.99 1016.48 1015.95 1015.76 1014.74 1014.22 1012.92 1011.96 1011.30 1010.70 1010.17 1009.54 1009.49 1009.75 1009.62 1008.90 1008.02 1007.75 1007.82 1007.90 1008.10 1008.44 1008.45 1008.68 1008.89 1009.02 1009.36 1010.01 1010.16 1010.16 1010.44 1010.53 1010.55 1010.57 1010.50 1010.38 1010.21 1009.89 1009.30 1008.81 1008.39 1007.77 1007.03 1006.46 1005.80 1005.19 1004.92 1004.89 1004.68
1018.34 1018.24 1017.62 1017.05 1016.93 1016.58 1015.96 1015.35 1014.77 1014.08 1012.98 1012.28 1011.42 1010.48 1009.61 1009.17 1008.89 1008.98 1009.10 1008.52 1007.51 1007.19 1007.29 1007.36 1007.60 1008.18 1008.48 1008.58 1008.65 1008.72 1009.01 1009.39 1009.66 1009.78 1009.99 1010.23 1010.43 1010.44 1010.52 1010.41 1010.05 1009.81 1009.64 1009.19 1008.60 1008.11 1007.60 1007.10 1006.51 1005.81 1005.63 1005.34 1005.54 1005.51
1018.41 1017.86 1017.55 1016.69 1016.08 1015.78 1015.22 1014.39 1013.72 1013.21 1012.36 1011.46 1010.70 1009.81 1009.07 1008.78 1008.83 1008.92 1008.60 1007.79 1007.24 1006.90 1006.71 1007.06 1007.35 1007.56 1008.03 1008.18 1008.52 1008.64 1008.83 1009.09 1009.25 1009.82 1009.90 1009.89 1010.15 1010.43 1010.33 1010.22 1009.99 1009.66 1009.43 1009.11 1008.59 1008.14 1007.76 1007.28 1006.80 1006.48 1006.36 1006.40 1006.37 1006.34
1017.65 1016.79 1016.55 1015.60 1015.03 1014.91 1014.22 1013.55 1013.07 1012.68 1012.10 1010.95 1010.18 1009.41 1008.87 1008.68 1008.66 1008.58 1008.39 1008.13 1007.73 1007.44 1007.25 1007.06 1007.13 1007.60 1007.82 1007.80 1008.04 1008.43 1008.30 1008.41 1008.96 1009.22 1009.45 1009.63 1009.95 1010.03 1010.27 1010.42 1010.26 1009.76 1009.38 1009.13 1008.73 1008.34 1008.01 1007.60 1007.39 1007.21 1007.05 1007.11 1007.03 1006.95
1016.81 1015.80 1015.33 1014.83 1014.58 1014.19 1013.72 1013.10 1012.74 1012.37 1011.77 1010.90 1010.19 1009.67 1009.08 1008.60 1008.29 1008.48 1008.10 1007.93 1007.79 1007.38 1007.29 1007.05 1006.84 1006.88 1006.86 1007.13 1007.27 1007.45 1007.60 1007.85 1008.03 1008.14 1008.48 1008.98 1009.36 1009.32 1009.61 1009.98 1010.01 1009.86 1009.45 1009.21 1008.98 1008.74 1008.49 1008.18 1008.04 1007.81 1007.71 1007.65 1007.67 1007.68
1016.08 1015.39 1015.04 1014.65 1014.36 1013.74 1013.31 1012.61 1012.01 1011.36 1010.90 1010.32 1010.00 1009.53 1008.92 1008.53 1008.13 1008.12 1007.86 1007.50 1007.40 1007.11 1006.92 1006.36 1006.07 1006.14 1006.41 1006.54 1006.53 1007.18 1007.69 1007.83 1008.09 1008.41 1009.09 1009.49 1009.26 1009.21 1009.35 1009.72 1009.89 1009.66 1009.53 1009.48 1009.33 1009.09 1008.91 1008.77 1008.60 1008.47 1008.43 1008.41 1008.54 1008.70
1015.73 1015.15 1014.90 1014.40 1014.08 1013.51 1012.63 1012.06 1011.13 1010.20 1009.73 1009.72 1009.47 1009.09 1008.66 1008.31 1008.07 1007.78 1007.24 1007.24 1007.13 1007.24 1006.99 1006.60 1006.21 1006.00 1006.01 1006.10 1006.47 1006.64 1006.97 1007.46 1008.09 1008.73 1009.00 1009.21 1009.53 1009.58 1009.50 1009.75 1009.95 1009.85 1009.92 1010.00 1009.84 1009.65 1009.52 1009.33 1009.25 1009.13 1009.22 1009.27 1009.49 1009.60
1014.59 1014.32 1014.30 1013.57 1012.90 1011.98 1011.05 1010.46 1009.86 1009.22 1009.09 1008.92 1008.70 1008.57 1008.37 1007.93 1007.24 1006.91 1006.73 1006.85 1007.15 1007.24 1007.09 1006.83 1006.43 1006.06 1005.83 1005.95 1006.45 1007.08 1006.87 1006.78 1006.86 1007.33 1007.87 1008.32 1008.69 1008.76 1009.30 1009.75 1010.05 1010.10 1010.23 1010.37 1010.42 1010.22 1009.99 1009.85 1009.69 1009.70 1009.86 1010.13 1010.39 1010.53
1013.41 1013.58 1013.28 1012.53 1011.52 1010.40 1009.71 1009.25 1008.84 1008.60 1008.45 1008.23 1008.07 1008.15 1007.79 1007.44 1006.88 1006.21 1006.02 1006.10 1006.51 1006.76 1006.71 1006.39 1006.24 1005.97 1005.61 1005.79 1006.22 1006.55 1006.74 1006.47 1006.35 1006.52 1006.78 1007.04 1007.69 1008.36 1008.89 1009.29 1009.72 1010.02 1010.25 1010.43 1010.60 1010.67 1010.65 1010.61 1010.59 1010.55 1010.68 1010.85 1011.04 1011.20
1012.23 1012.19 1011.88 1011.24 1010.13 1009.10 1008.79 1008.51 1008.08 1007.74 1007.36 1007.29 1007.22 1007.27 1007.32 1007.40 1007.34 1006.45 1006.08 1005.98 1006.17 1006.24 1006.32 1006.28 1005.86 1005.75 1005.79 1005.50 1005.17 1005.43 1005.52 1005.20 1005.68 1006.18 1006.48 1006.95 1007.44 1007.70 1008.29 1008.84 1009.39 1009.82 1010.24 1010.55 1010.78 1011.01 1011.14 1011.15 1011.24 1011.34 1011.46 1011.60 1011.70 1011.82
1011.03 1010.78 1010.62 1010.39 1009.46 1008.56 1007.90 1007.87 1007.38 1006.97 1006.68 1006.52 1006.28 1006.16 1006.49 1006.90 1006.85 1006.52 1006.38 1006.12 1006.11 1006.09 1006.11 1005.98 1005.76 1005.48 1005.38 1005.05 1004.72 1004.90 1005.22 1004.86 1005.18 1005.63 1006.13 1006.54 1006.94 1007.45 1008.06 1008.63 1009.14 1009.65 1010.13 1010.62 1010.86 1011.11 1011.35 1011.42 1011.53 1011.68 1011.86 1012.04 1012.19 1012.31
Thickness
5550 5554 5556 5561 5569 5577 5583 5590 5596 5603 5607 5612 5618 5623 5627 5633 5640 5646 5654 5661 5664 5662 5678 5697 5709 5709 5711 5710 5711 5724 5721 5724 5714 5704 5701 5697 5698 5704 5708 5717 5720 5703 5693 5688 5684 5687 5689 5722 5726 5708 5702 5713 5716 5717
5544 5549 5550 5554 5562 5569 5576 5584 5591 5598 5604 5609 5614 5619 5624 5628 5633 5641 5644 5653 5658 5662 5676 5691 5706 5716 5716 5720 5710 5710 5713 5713 5713 5699 5697 5693 5696 5691 5689 5689 5712 5697 5700 5692 5689 5685 5699 5705 5704 5710 5706 5702 5705 5707
5540 5543 5546 5547 5554 5563 5570 5578 5586 5593 5599 5605 5610 5615 5619 5623 5627 5630 5634 5641 5650 5654 5668 5681 5697 5714 5718 5721 5725 5705 5705 5715 5715 5717 5700 5692 5694 5686 5680 5681 5702 5706 5706 5691 5689 5692 5692 5697 5699 5699 5699 5697 5700 5701
5535 5539 5542 5546 5549 5557 5564 5572 5580 5587 5594 5600 5607 5611 5616 5621 5624 5627 5630 5637 5639 5641 5647 5674 5700 5705 5717 5719 5719 5719 5715 5714 5712 5708 5696 5687 5687 5691 5678 5689 5687 5694 5700 5684 5678 5685 5684 5686 5690 5691 5691 5692 5691 5690
5530 5534 5538 5542 5547 5551 5558 5566 5574 5582 5589 5596 5602 5607 5612 5617 5622 5627 5629 5635 5638 5639 5641 5658 5681 5702 5708 5712 5713 5713 5708 5702 5696 5693 5686 5684 5684 5685 5676 5678 5679 5690 5683 5674 5671 5686 5683 5684 5686 5685 5682 5680 5680 5680
5526 5529 5534 5539 5543 5548 5552 5560 5568 5576 5584 5591 5596 5602 5607 5612 5619 5624 5628 5630 5634 5635 5639 5643 5671 5687 5701 5705 5702 5701 5698 5692 5688 5687 5683 5683 5691 5684 5669 5663 5686 5688 5689 5689 5684 5686 5683 5685 5683 5683 5676 5674 5675 5674
5522 5526 5530 5535 5540 5544 5549 5554 5563 5571 5579 5586 5592 5597 5602 5607 5612 5616 5623 5629 5631 5632 5635 5639 5651 5679 5693 5692 5688 5689 5689 5686 5685 5677 5678 5679 5681 5677 5663 5662 5686 5685 5687 5686 5687 5682 5678 5680 5675 5676 5673 5673 5672 5672
5518 5522 5527 5531 5536 5541 5546 5549 5557 5566 5574 5582 5589 5595 5600 5605 5609 5615 5627 5632 5629 5628 5630 5630 5646 5662 5685 5672 5673 5678 5676 5675 5677 5674 5670 5671 5670 5666 5663 5675 5681 5683 5680 5678 5676 5676 5672 5672 5668 5666 5666 5663 5660 5658
5514 5518 5523 5528 5533 5538 5543 5548 5553 5562 5571 5579 5586 5593 5598 5601 5605 5617 5623 5626 5627 5625 5625 5626 5633 5648 5671 5666 5668 5669 5668 5660 5664 5666 5663 5669 5658 5659 5672 5675 5673 5674 5671 5669 5667 5666 5662 5658 5656 5655 5653 5650 5646 5647
5511 5515 5520 5525 5530 5535 5541 5546 5552 5560 5568 5574 5581 5587 5596 5601 5608 5614 5614 5614 5617 5618 5617 5622 5632 5642 5660 5657 5658 5659 5655 5654 5651 5659 5664 5658 5655 5664 5668 5671 5669 5666 5664 5661 5655 5650 5650 5647 5646 5646 5644 5641 5639 5637
5509 5514 5519 5524 5529 5533 5539 5545 5550 5557 5567 5571 5574 5582 5590 5597 5600 5602 5605 5607 5610 5617 5617 5627 5634 5643 5659 5655 5652 5656 5656 5654 5646 5651 5656 5647 5646 5656 5662 5661 5660 5658 5657 5655 5652 5650 5647 5643 5641 5639 5637 5635 5633 5632
5507 5511 5517 5523 5528 5533 5539 5544 5548 5553 5560 5562 5565 5570 5578 5588 5591 5597 5600 5606 5611 5619 5628 5633 5642 5643 5653 5657 5652 5649 5651 5644 5643 5649 5647 5642 5643 5654 5653 5655 5654 5652 5651 5650 5649 5647 5644 5641 5638 5635 5631 5630 5629 5630
5505 5511 5516 5522 5528 5534 5539 5543 5547 5550 5554 5560 5565 5574 5578 5580 5579 5592 5602 5605 5609 5625 5637 5642 5642 5646 5651 5651 5642 5642 5641 5634 5642 5639 5639 5639 5645 5648 5648 5649 5648 5647 5647 5646 5643 5641 5639 5637 5636 5632 5629 5629 5627 5627
5503 5509 5516 5521 5527 5536 5542 5544 5546 5548 5553 5562 5571 5559 5573 5582 5587 5595 5602 5614 5626 5635 5640 5638 5639 5643 5641 5644 5632 5639 5634 5635 5631 5629 5634 5639 5645 5645 5642 5641 5641 5643 5640 5637 5636 5635 5634 5634 5632 5630 5628 5626 5625 5625
5502 5508 5513 5518 5525 5532 5537 5540 5543 5546 5552 5562 5564 5557 5576 5589 5595 5605 5613 5617 5627 5633 5638 5636 5635 5635 5630 5632 5626 5628 5630 5629 5630 5629 5632 5642 5644 5639 5637 5637 5635 5632 5632 5631 5632 5629 5628 5626 5624 5622 5621 5621 5620 5621
5500 5506 5509 5513 5520 5526 5531 5535 5539 5542 5548 5555 5562 5570 5579 5582 5592 5599 5606 5613 5623 5625 5625 5628 5624 5625 5623 5623 5625 5625 5624 5625 5631 5632 5638 5639 5637 5634 5632 5630 5628 5627 5625 5623 5622 5620 5618 5617 5615 5615 5616 5616 5617 5617
5499 5504 5505 5510 5516 5522 5526 5530 5536 5541 5546 5552 5560 5563 5567 5572 5584 5594 5600 5607 5616 5614 5609 5614 5608 5613 5614 5612 5613 5621 5621 5630 5635 5635 5635 5634 5631 5629 5627 5625 5624 5622 5619 5616 5614 5612 5612 5612 5612 5613 5614 5616 5617 5614
5494 5498 5501 5505 5509 5516 5521 5524 5531 5539 5543 5547 5547 5563 5567 5575 5586 5591 5594 5603 5607 5604 5604 5605 5606 5604 5608 5612 5615 5623 5629 5631 5629 5630 5629 5628 5628 5627 5624 5621 5620 5616 5613 5610 5607 5606 5608 5608 5607 5608 5610 5612 5610 5611
5489 5494 5501 5504 5505 5507 5517 5524 5524 5535 5538 5544 5550 5555 5564 5572 5579 5587 5593 5598 5603 5605 5602 5602 5607 5605 5608 5615 5622 5625 5625 5627 5628 5625 5625 5625 5624 5623 5621 5618 5614 5611 5608 5605 5602 5601 5602 5602 5602 5602 5602 5602 5604 5609
5491 5495 5501 5505 5504 5508 5517 5522 5524 5530 5540 5544 5549 5556 5564 5570 5578 5583 5588 5593 5595 5598 5602 5605 5606 5612 5617 5622 5627 5631 5636 5632 5624 5618 5618 5618 5617 5616 5615 5612 5610 5608 5604 5601 5599 5595 5597 5599 5600 5602 5601 5601 5602 5606
5487 5493 5497 5500 5500 5502 5509 5519 5526 5532 5532 5537 5556 5558 5567 5571 5577 5579 5583 5585 5588 5597 5601 5612 5616 5621 5626 5627 5628 5631 5630 5625 5623 5622 5618 5614 5616 5611 5610 5607 5604 5601 5597 5595 5595 5596 5595 5598 5600 5600 5601 5602 5606 5609
5482 5489 5494 5497 5501 5506 5508 5513 5514 5526 5533 5541 5548 5561 5566 5571 5576 5581 5585 5589 5594 5602 5606 5612 5616 5620 5622 5624 5628 5629 5630 5627 5622 5618 5617 5615 5612 5608 5606 5602 5599 5598 5595 5593 5593 5592 5597 5600 5601 5602 5605 5609 5611 5613
5482 5487 5491 5498 5502 5505 5512 5514 5520 5528 5534 5547 5559 5566 5572 5578 5587 5590 5589 5592 5601 5614 5622 5625 5626 5626 5626 5627 5628 5627 5627 5625 5617 5614 5615 5611 5607 5605 5602 5600 5597 5595 5593 5595 5593 5592 5597 5597 5601 5605 5609 5611 5610 5613
5482 5485 5494 5502 5503 5503 5511 5522 5523 5531 5545 5550 5557 5569 5580 5583 5589 5591 5594 5600 5615 5621 5622 5624 5625 5621 5622 5623 5623 5626 5623 5619 5615 5614 5611 5607 5606 5604 5600 5596 5595 5592 5589 5591 5592 5593 5595 5598 5600 5605 5605 5607 5606 5607
5483 5489 5491 5492 5509 5515 5519 5528 5533 5538 5546 5555 5565 5574 5580 5585 5585 5588 5595 5607 5615 5621 5625 5625 5625 5625 5623 5623 5622 5622 5620 5617 5615 5611 5608 5607 5603 5598 5597 5594 5589 5589 5588 5589 5591 5593 5594 5597 5599 5599 5599 5600 5602 5602
5484 5497 5496 5517 5522 5519 5523 5535 5538 5541 5546 5562 5568 5575 5580 5585 5587 5590 5596 5602 5609 5614 5619 5622 5626 5622 5622 5625 5623 5619 5620 5618 5614 5610 5608 5605 5602 5599 5595 5591 5587 5588 5588 5588 5591 5593 5594 5596 5597 5595 5596 5596 5595 5599
5493 5509 5510 5510 5514 5521 5529 5533 5536 5541 5547 5558 5564 5571 5578 5586 5594 5594 5601 5605 5607 5614 5618 5622 5627 5628 5630 5628 5626 5625 5624 5622 5620 5618 5616 5609 5604 5603 5598 5594 5592 5588 5587 5589 5589 5590 5591 5593 5593 5594 5593 5594 5594 5595
5501 5509 5511 5513 5518 5526 5534 5541 5547 5551 5554 5560 5567 5572 5582 5587 5590 5595 5603 5610 5613 5618 5621 5627 5631 5632 5631 5631 5631 5625 5620 5618 5617 5615 5609 5604 5603 5603 5600 5595 5591 5589 5588 5586 5587 5588 5589 5589 5590 5590 5590 5591 5590 5589
5499 5503 5508 5512 5517 5522 5533 5543 5554 5562 5567 5567 5573 5578 5585 5590 5595 5601 5609 5612 5615 5616 5619 5623 5628 5632 5633 5633 5630 5628 5625 5622 5615 5607 5604 5601 5600 5600 5598 5594 5590 5588 5586 5584 5581 5582 5583 5585 5586 5585 5584 5584 5582 5581
5510 5509 5513 5523 5535 5540 5549 5554 5563 5573 5575 5578 5582 5585 5589 5595 5603 5608 5612 5614 5614 5615 5618 5622 5627 5633 5636 5634 5630 5625 5626 5629 5627 5620 5611 5606 5606 5606 5600 5594 5590 5587 5585 5582 5581 5582 5580 5582 5583 5582 5580 5577 5574 5573
5526 5519 5529 5537 5546 5557 5564 5571 5575 5577 5581 5584 5589 5590 5594 5598 5605 5613 5619 5619 5617 5617 5620 5624 5627 5630 5634 5632 5629 5627 5625 5629 5631 5628 5626 5624 5616 5609 5603 5598 5592 5588 5586 5583 5581 5579 5578 5577 5576 5577 5575 5573 5571 5570
5543 5541 5546 5554 5563 5574 5576 5577 5581 5584 5590 5592 5597 5596 5599 5600 5601 5611 5616 5619 5619 5620 5621 5623 5628 5629 5630 5633 5637 5636 5636 5638 5634 5631 5628 5624 5619 5615 5608 5602 5596 5592 5588 5584 5582 5579 5578 5576 5573 5571 5570 5569 5568 5567
5556 5559 5561 5564 5570 5579 5585 5585 5590 5594 5597 5600 5603 5605 5603 5602 5604 5611 5612 5616 5618 5619 5620 5623 5627 5630 5631 5636 5638 5638 5635 5640 5638 5633 5630 5626 5622 5617 5612 5606 5601 5596 5592 5587 5584 5582 5579 5578 5576 5573 5571 5568 5567 5566